Location: Lecco
(45.8566°N, 9.3977°E)
Time: 12:56:02
(UTC+02:00)

Vanguard 2 Rocket - Pass Details

Date: 17 August 2020
Orbit: 554 x 3326 km, 32.9° (Epoch: 24 September)

Event Time Altitude Azimuth Distance (km) Brightness Sun altitude
Rises 22:40:47 0° 258° (WSW) 4,200 10.7 -20.3°
Reaches altitude 10° 22:44:35 10° 238° (WSW) 3,668 10.1 -20.8°
Maximum altitude 22:50:20 17° 202° (SSW) 3,746 9.8 -21.4°
Enters shadow 22:54:26 15° 181° (S) 4,343 9.9 -21.9°
Drops below altitude 10° 22:57:54 10° 169° (SSE) 5,036 - -22.3°
Sets 23:04:49 0° 153° (SSE) 6,592 - -23.0°
